Regional Weather Roundup
Issued by NWS

Home | Current Version | Previous Version | Graphics & Text | Print | Product List | Glossary On
Versions: 1 2 3 4 5 6 7 8 9 10 11 12 13 14 15 16 17 18 19 20 21 22 23 24 25 26 27 28
000
ASUS45 KTFX 251110
RWRMT
MONTANA REGIONAL WEATHER ROUNDUP
NATIONAL WEATHER SERVICE GREAT FALLS MT
500 AM MDT TUE APR 25 2017

NOTE: "FAIR" INDICATES FEW OR NO CLOUDS BELOW 12000 FEET WITH NO
SIGNIFICANT WEATHER AND/OR OBSTRUCTIONS TO VISIBILITY.

MTZ001>007-043-251200-
WEST OF THE DIVIDE

CITY           SKY/WX    TMP DP  RH WIND       PRES   REMARKS
KALISPELL      CLOUDY    41  40  96 S3        29.77R
MISSOULA       CLOUDY    38  38 100 NW6       29.80R
BUTTE          CLOUDY    37  32  82 NW8       29.72R WCI  31
MULLAN PASS    MIX PCPN  30  30 100 NW5       29.77R VSB 1/2
ANACONDA         N/A     36  34  93 N3        29.74R
DEER LODGE       N/A     39  34  81 NW10      29.76R
EUREKA           N/A     39  37  93 CALM      29.76R
HAMILTON         N/A     39  37  93 CALM      29.79R
PLAINS           N/A     40  36  86 CALM      29.82R
$$

MTZ008-052>055-251200-
SOUTHWEST MONTANA

CITY           SKY/WX    TMP DP  RH WIND       PRES   REMARKS
BOZEMAN        CLOUDY    39  37  92 SE12      29.68R WCI  32
DILLON         LGT RAIN  35  32  88 S6        29.70R WCI  30
W YELLOWSTONE  FLURRIES  32  32 100 CALM      29.64S
ENNIS          CLOUDY    37  36  93 N16       29.71R WCI  28
THREE FORKS      N/A     42  42 100 N7        29.72R
TWIN BRIDGES     N/A     38  32  79 N7        29.72R
$$

MTZ009-010-012-014-046-048-049-054-251200-
EAST SLOPES AND CENTRAL MONTANA

CITY           SKY/WX    TMP DP  RH WIND       PRES   REMARKS
CUT BANK       CLOUDY    36  35  96 N6        29.74S WCI  31
GREAT FALLS    CLOUDY    40  37  89 NW10      29.74R
MALMSTROM AFB  CLOUDY    40  39  96 N6        29.74R
HELENA         CLOUDY    42  38  85 W7        29.71S
AUGUSTA        CLOUDY    37  37  99 N7        29.73R WCI  32
BOWMANS CRNR   MOCLDY    36  34  92 N6        29.71S WCI  32
CHOTEAU          N/A     39  37  93 N6        29.76R
FAIRFIELD      CLOUDY    39  37  92 NW8       29.73R
POWER          MOCLDY    38  38  99 N8        29.73R
RAYNESFORD     CLOUDY    39  37  94 CALM      29.73R
ULM            CLOUDY    41  39  93 N7        29.73R
$$

MTZ011-013-016-021-045-047-050-051-251200-
NORTH CENTRAL MONTANA

CITY           SKY/WX    TMP DP  RH WIND       PRES   REMARKS
HAVRE          CLOUDY    33  28  81 E21G28    29.79S WCI  21
LEWISTOWN      FOG       33  32  96 E18       29.73R VSB 1   WCI  22
CHINOOK          N/A     32  27  80 E12G18    29.84R WCI  23
DENTON         CLOUDY    33  33  99 NE17G26   29.71R FOG     WCI  23
FORT BENTON      N/A     39  36  87 MISG      29.77R
GEYSER         DRIZZLE   37  36  97 E10       29.72R FOG     WCI  29
GRASS RANGE    FOG       31  31 100 E9        29.74R VSB 3/8 WCI  23
JUDITH GAP     LGT RAIN  36  35  95 SW6       29.71R FOG     WCI  31
STANFORD       LGT RAIN  37  36  96 E8        29.72R WCI  31
WINIFRED       FOG       31  32 100 E16       29.75R VSB 1/2 WCI  20
$$

MTZ017>020-022>027-061-062-251200-
NORTHEAST MONTANA

CITY           SKY/WX    TMP DP  RH WIND       PRES   REMARKS
GLASGOW        CLOUDY    30  24  78 E13       29.87R WCI  20
JORDAN           N/A     29  25  85 E12       29.83R WCI  19
SIDNEY         CLOUDY    30  25  81 NE12      29.86R WCI  20
WOLF POINT     CLOUDY    32  25  75 E12       29.88R WCI  23
MALTA          CLOUDY    30  25  80 E10       29.86S WCI  21
PLENTYWOOD       N/A     27  25  93 NE12      29.89R WCI  16
POPLAR           N/A     30  25  80 NE12      29.89R WCI  21
SCOBEY           N/A     27  20  75 NE8       29.87R WCI  19
$$

MTZ028>42-056>058-251200-
SOUTHCENTRAL AND SOUTHEAST MONTANA

CITY           SKY/WX    TMP DP  RH WIND       PRES   REMARKS
BAKER          CLOUDY    29  25  85 E14       29.75R WCI  18
BILLINGS       CLOUDY    35  34  96 NE18      29.71R FOG     WCI  24
LIVINGSTON     MIX PCPN  34  33  96 E5        29.69R
MILES CITY     CLOUDY    32  27  81 NE16      29.75F WCI  21
BIG TIMBER     CLOUDY    37  36  93 N3        29.72R FOG
EKALAKA          N/A     26  23  88 NE14      29.69S WCI  14
LAUREL           N/A     36  32  85 N12       29.72R WCI  28
ROUNDUP          N/A     33  29  86 N14       29.69R VSB 0   WCI  23
$$

REGIONAL REPORTS...DAKOTAS

CITY           SKY/WX    TMP DP  RH WIND       PRES   REMARKS
WILLISTON      CLOUDY    31  22  69 NE13      29.88R WCI  21
MINOT          CLOUDY    30  24  78 N15       29.86R WCI  19
DICKINSON      CLOUDY    27  25  92 NE15      29.75F WCI  15
BEACH          CLOUDY    28  28 100 NE12      29.80F WCI  18
TIOGA          CLOUDY    27  27 100 NE14      29.87S WCI  15
WATFORD CITY   CLOUDY    28  23  80 NE17      29.85R WCI  16
BISMARCK       CLOUDY    31  28  89 NE20      29.79S WCI  19
GRAND FORKS    CLOUDY    32  29  88 N22       29.74R WCI  19
FARGO          CLOUDY    33  31  92 N24       29.67S WCI  20
BUFFALO SD       N/A     30  28  92 NE16      29.63F WCI  19
RAPID CITY     LGT SNOW  32  31  96 NE13      29.64S FOG     WCI  22
$$

REGIONAL REPORTS...WYOMING/IDAHO/WASHINGTON

CITY           SKY/WX    TMP DP  RH WIND       PRES   REMARKS
GILLETTE       LGT SNOW  34  32  92 NE22G30   29.52R WCI  22
SHERIDAN         N/A    N/A N/A N/A MISG      29.65R
BUFFALO WY     HVY SNOW  34  32  92 NW32G41   29.57R VSB 1/4 WCI  20
CODY           LGT RAIN  37  34  89 N14       29.64R WCI  28
YELLOWSTONE LA   N/A     27  26  96 CALM      29.65R
IDAHO FALLS    CLOUDY    38  36  92 SW18      29.69S WCI  28
SALMON         CLOUDY    37  34  87 SW3       29.75R
BOISE          CLOUDY    42  38  85 NW10      29.85R
SPOKANE        MOCLDY    43  40  89 SW14      29.82R
$$

REGIONAL REPORTS...ALBERTA

CITY           SKY/WX    TMP DP  RH WIND       PRES   REMARKS
EDMONTON       CLOUDY    32  30  93 NW8       29.88R WCI  25
CALGARY        LGT SNOW  30  27  86 N15       29.82R FOG     WCI  19
LETHBRIDGE     LGT RAIN  37  37 100 E8        29.76S WCI  31
MEDICINE HAT   CLOUDY    34  30  86 E8        29.81S WCI  27
WATERTON GATE    N/A     34  34 100 SW2         N/A
CARDSTON         N/A     36  36 100 NW5         N/A
MILK RIVER       N/A     36  36 100 E7          N/A  WCI  30
$$

REGIONAL REPORTS...SASKATCHEWAN

CITY           SKY/WX    TMP DP  RH WIND       PRES   REMARKS
SWIFT CURRENT  CLOUDY    27  25  93 E10       29.89R WCI  17
REGINA         CLOUDY    27  19  74 NE10      29.97R WCI  17
SASKATOON      MOCLDY    27  21  80 E8        30.03R WCI  18
CYPRESS HILLS    N/A     25  23  93 SE7         N/A  WCI  17
VAL MARIE        N/A     28  23  80 E9          N/A  WCI  20
ROCKGLEN         N/A     25  25 100 NE3         N/A
ASSINIBOIA       N/A     32  30  93 SE8         N/A  WCI  25
$$




USA.gov is the U.S. government's official web portal to all federal, state and local government web resources and services.